CW9371 Weather Reports


Display with metric or nautical units.
time (UTC)temp
F
wind
direction
speed
MPH
gust
MPH
rain 1hr
in
rain 24hr
in
rain mn
in
humidity
%
barometer
mb
20260509113002 51 207 3.0 0.0 0.00 0.00 0.00 67 997.8
20260509111612 51 128 3.0 0.0 0.00 0.00 0.00 67 997.9
20260509110058 51 181 4.0 0.0 0.00 0.00 0.00 66 998.4
20260509104610 51 259 3.0 0.0 0.00 0.00 0.00 66 998.6
20260509103110 50 252 2.0 0.0 0.00 0.00 0.00 64 998.6
20260509101556 49 150 1.0 0.0 0.00 0.00 0.00 62 998.3
20260509100051 49 137 1.0 0.0 0.00 0.00 0.00 61 998.6
20260509094548 49 130 2.0 0.0 0.00 0.00 0.00 58 998.8
20260509093047 49 114 2.0 0.0 0.00 0.00 0.00 55 999.4
20260509091545 49 104 2.0 0.0 0.00 0.00 0.00 47 999.6
20260509090051 49 236 2.0 0.0 0.00 0.00 0.00 45 1000.0
20260509084539 50 216 3.0 0.0 0.00 0.00 0.00 42 1000.4
20260509083036 50 204 0.0 0.0 0.00 0.00 0.00 38 1000.3
20260509081547 50 183 2.0 0.0 0.00 0.00 0.00 37 1000.4
20260509080034 51 172 2.0 0.0 0.00 0.00 0.00 36 1000.6
20260509074529 51 195 2.0 0.0 0.00 0.00 0.00 38 1000.9
20260509073041 51 181 2.0 0.0 0.00 0.00 0.00 38 1001.1
20260509071528 51 197 2.0 0.0 0.00 0.00 0.00 39 1001.4
20260509070037 51 229 2.0 0.0 0.00 0.00 0.00 38 1002.0
20260509064524 51 210 3.0 0.0 0.00 0.00 0.00 39 1002.1
20260509063042 51 210 2.0 0.0 0.00 0.00 0.00 40 1002.1
20260509061518 51 118 2.0 0.0 0.00 0.00 0.00 41 1002.2
20260509060020 51 185 1.0 0.0 0.00 0.00 0.00 42 1002.6
20260509054514 52 166 2.0 0.0 0.00 0.00 0.00 41 1002.6
20260509053020 52 247 2.0 0.0 0.00 0.00 0.00 44 1002.9
20260509051511 51 229 3.0 0.0 0.00 0.00 0.00 41 1003.2
20260509050009 51 220 1.0 0.0 0.00 0.00 0.00 40 1003.4
20260509044511 52 227 2.0 0.0 0.00 0.00 0.00 40 1003.5
20260509043005 52 248 2.0 0.0 0.00 0.00 0.00 39 1003.6
20260509041504 52 189 0.0 0.0 0.00 0.00 0.00 39 1003.7
20260509040002 52 195 0.0 0.0 0.00 0.00 0.00 38 1003.8
20260509034501 52 234 1.0 0.0 0.00 0.00 0.00 38 1004.1
20260509033100 53 231 1.0 0.0 0.00 0.00 0.00 38 1004.1
20260509031559 53 199 1.0 0.0 0.00 0.00 0.00 38 1004.3
20260509030058 53 224 1.0 0.0 0.00 0.00 0.00 37 1004.5
20260509024602 54 229 1.0 0.0 0.00 0.00 0.00 37 1004.6
20260509023100 54 234 1.0 0.0 0.00 0.00 0.00 37 1004.7
20260509021557 55 220 1.0 0.0 0.00 0.00 0.00 36 1004.7
20260509020059 55 248 2.0 0.0 0.00 0.00 0.00 36 1004.8
20260509014555 55 272 2.0 0.0 0.00 0.00 0.00 36 1004.7
20260509013058 55 214 1.0 0.0 0.00 0.00 0.00 36 1004.7
20260509011555 55 216 1.0 0.0 0.00 0.00 0.00 35 1004.6
20260509010054 56 256 3.0 0.0 0.00 0.00 0.00 35 1004.5
20260509004605 56 252 2.0 0.0 0.00 0.00 0.00 35 1004.4
20260509003052 56 265 3.0 0.0 0.00 0.00 0.00 33 1004.7
20260509001550 57 239 4.0 0.0 0.00 0.00 0.00 33 1004.5
20260509000049 57 245 2.0 0.0 0.00 0.00 0.00 33 1004.6
20260508234553 57 291 4.0 0.0 0.00 0.00 0.00 32 1004.8
20260508233051 57 291 4.0 0.0 0.00 0.00 0.00 32 1004.8
20260508231546 57 284 5.0 0.0 0.00 0.00 0.00 32 1004.9
20260508230046 57 280 6.0 0.0 0.00 0.00 0.00 31 1004.9
20260508224544 57 228 6.0 0.0 0.00 0.00 0.00 31 1004.9
20260508223044 57 243 5.0 0.0 0.00 0.00 0.00 32 1005.0
20260508221542 58 243 8.0 0.0 0.00 0.00 0.00 31 1005.2
20260508220041 58 225 7.0 0.0 0.00 0.00 0.00 28 1005.3
20260508214541 58 269 8.0 0.0 0.00 0.00 0.00 29 1005.3
20260508213040 59 264 7.0 0.0 0.00 0.00 0.00 28 1005.4
20260508211538 59 248 8.0 0.0 0.00 0.00 0.00 28 1005.5
20260508210036 58 275 9.0 0.0 0.00 0.00 0.00 29 1005.5
20260508204536 58 210 9.0 0.0 0.00 0.00 0.00 29 1005.5
20260508203039 59 277 8.0 0.0 0.00 0.00 0.00 29 1005.7
20260508201534 58 293 8.0 0.0 0.00 0.00 0.00 28 1005.7
20260508200034 58 271 10.0 0.0 0.00 0.00 0.00 27 1006.2
20260508194531 57 199 12.0 0.0 0.00 0.00 0.00 28 1006.3
20260508193030 58 240 8.0 0.0 0.00 0.00 0.00 29 1006.4
20260508191535 58 239 10.0 0.0 0.00 0.00 0.00 32 1006.5
20260508190034 57 258 12.0 0.0 0.00 0.00 0.00 29 1006.7
20260508184529 58 267 9.0 0.0 0.00 0.00 0.00 29 1006.8
20260508183028 58 253 7.0 0.0 0.00 0.00 0.00 28 1006.9
20260508181531 57 287 9.0 0.0 0.00 0.00 0.00 29 1007.2
20260508180019 57 310 8.0 0.0 0.00 0.00 0.00 30 1007.2
20260508174517 56 258 9.0 0.0 0.00 0.00 0.00 31 1007.5
20260508173015 55 246 10.0 0.0 0.00 0.00 0.00 31 1007.7
20260508171518 54 247 9.0 0.0 0.00 0.00 0.00 33 1007.8
20260508170012 53 278 9.0 0.0 0.00 0.00 0.00 34 1008.3
20260508164510 54 242 10.0 0.0 0.00 0.00 0.00 35 1008.3
20260508163013 54 285 9.0 0.0 0.00 0.00 0.00 35 1008.4
20260508161505 53 270 7.0 0.0 0.00 0.00 0.00 36 1008.6
20260508160005 52 240 7.0 0.0 0.00 0.00 0.00 36 1008.9
20260508154504 52 290 5.0 0.0 0.00 0.00 0.00 39 1008.9
20260508153002 51 275 9.0 0.0 0.00 0.00 0.00 37 1009.0
20260508151601 51 276 8.0 0.0 0.00 0.00 0.00 38 1009.0
20260508150057 50 285 6.0 0.0 0.00 0.00 0.00 41 1009.0
20260508144555 50 310 6.0 0.0 0.00 0.00 0.00 44 1009.2
20260508143054 49 306 8.0 0.0 0.00 0.00 0.00 44 1009.4
20260508141612 49 278 6.0 0.0 0.00 0.00 0.00 47 1009.4
20260508140046 47 252 7.0 0.0 0.00 0.00 0.00 52 1009.6
20260508134555 47 245 4.0 0.0 0.00 0.00 0.00 55 1009.6
20260508133040 46 289 6.0 0.0 0.00 0.00 0.00 61 1009.7
20260508131536 44 272 5.0 0.0 0.00 0.00 0.00 64 1009.9
20260508130033 43 283 4.0 0.0 0.00 0.00 0.00 68 1009.9
20260508124531 41 225 3.0 0.0 0.00 0.00 0.00 70 1010.0
20260508123039 39 237 1.0 0.0 0.00 0.00 0.00 76 1010.0
20260508121521 35 2 0.0 0.0 0.00 0.00 0.00 87 1010.0
20260508120018 32 2 0.0 0.0 0.00 0.00 0.00 87 1010.2
20260508114517 30 2 0.0 0.0 0.00 0.00 0.00 88 1010.0